,,,PA_Meas_PMT16A,,PR_Meas_QMR101_102,,RH_Meas_QMH101,,SR_Meas_QMS101,,TA_Meas_QMH101,,GenWind,,GenWind,
date,time,status,PA,status,PR,status,RH,status,SR,status,TA,status,DirAvg,status,SpdAvg,
2012-07-12, 00:00:05,VALID,1010.01,VALID,0,VALID,104,VALID,0,VALID,23.9863,VALID,183,VALID,0,
2012-07-12, 00:01:05,VALID,1010,VALID,0,VALID,104,VALID,0,VALID,23.9668,VALID,183,VALID,0,
2012-07-12, 00:02:05,VALID,1010,VALID,0,VALID,104,VALID,0,VALID,23.9863,VALID,183,VALID,0,
2012-07-12, 00:03:05,VALID,1009.97,VALID,0,VALID,104,VALID,0,VALID,24.0058,VALID,183,VALID,0,
2012-07-12, 00:04:05,VALID,1009.97,VALID,0,VALID,104,VALID,0,VALID,24.0253,VALID,183,VALID,0,
2012-07-12, 00:05:05,VALID,1009.97,VALID,0,VALID,104,VALID,0,VALID,24.0448,VALID,183,VALID,0,
2012-07-12, 00:06:05,VALID,1009.95,VALID,0,VALID,104,VALID,0,VALID,24.0448,VALID,183,VALID,0,
2012-07-12, 00:07:05,VALID,1009.93,VALID,0,VALID,104,VALID,0,VALID,24.0253,VALID,183,VALID,0,
2012-07-12, 00:08:05,VALID,1009.94,VALID,0,VALID,104,VALID,0,VALID,24.0253,VALID,183,VALID,0,
2012-07-12, 00:09:05,VALID,1009.94,VALID,0,VALID,104,VALID,0,VALID,24.0058,VALID,183,VALID,0,
2012-07-12, 00:10:05,VALID,1009.91,VALID,0,VALID,104,VALID,0,VALID,24.0058,VALID,183,VALID,0,
2012-07-12, 00:11:05,VALID,1009.92,VALID,0,VALID,104,VALID,0,VALID,24.0058,VALID,183,VALID,0,
2012-07-12, 00:12:05,VALID,1009.9,VALID,0,VALID,104,VALID,0,VALID,24.0058,VALID,183,VALID,0,
2012-07-12, 00:13:05,VALID,1009.92,VALID,0,VALID,104,VALID,0,VALID,24.0076,VALID,183,VALID,0,
2012-07-12, 00:14:05,VALID,1009.91,VALID,0,VALID,104,VALID,0,VALID,23.9863,VALID,183,VALID,0,
2012-07-12, 00:15:05,VALID,1009.91,VALID,0,VALID,104,VALID,0,VALID,23.9881,VALID,183,VALID,0,
2012-07-12, 00:16:05,VALID,1009.9,VALID,0,VALID,104,VALID,0,VALID,23.9863,VALID,183,VALID,0,
2012-07-12, 00:17:05,VALID,1009.91,VALID,0,VALID,104,VALID,0,VALID,23.9863,VALID,183,VALID,0,
2012-07-12, 00:18:05,VALID,1009.88,VALID,0,VALID,104,VALID,0,VALID,23.9863,VALID,183,VALID,0,
2012-07-12, 00:19:05,VALID,1009.87,VALID,0,VALID,104,VALID,0,VALID,23.9668,VALID,183,VALID,0,
2012-07-12, 00:20:05,VALID,1009.87,VALID,0,VALID,104,VALID,0,VALID,23.9668,VALID,183,VALID,0,
2012-07-12, 00:21:05,VALID,1009.86,VALID,0,VALID,104,VALID,0,VALID,23.9473,VALID,183,VALID,0,
2012-07-12, 00:22:05,VALID,1009.88,VALID,0,VALID,104,VALID,0,VALID,23.9491,VALID,183,VALID,0,
2012-07-12, 00:23:05,VALID,1009.85,VALID,0,VALID,104,VALID,0,VALID,23.9084,VALID,183,VALID,0,
2012-07-12, 00:24:05,VALID,1009.85,VALID,0,VALID,104,VALID,0,VALID,23.9278,VALID,183,VALID,0,
2012-07-12, 00:25:05,VALID,1009.85,VALID,0,VALID,104,VALID,0,VALID,23.9084,VALID,183,VALID,0,
2012-07-12, 00:26:05,VALID,1009.86,VALID,0,VALID,104,VALID,0,VALID,23.9084,VALID,183,VALID,0.236328,
2012-07-12, 00:27:05,VALID,1009.87,VALID,0,VALID,104,VALID,0,VALID,23.9084,VALID,183,VALID,0.328516,
2012-07-12, 00:28:05,VALID,1009.86,VALID,0,VALID,104,VALID,0,VALID,23.8889,VALID,183,VALID,0.265234,
2012-07-12, 00:29:05,VALID,1009.86,VALID,0,VALID,104,VALID,0,VALID,23.9102,VALID,183,VALID,0.232031,
2012-07-12, 00:30:05,VALID,1009.83,VALID,0,VALID,104,VALID,0,VALID,23.8889,VALID,183,VALID,0.021875,
2012-07-12, 00:31:05,VALID,1009.82,VALID,0,VALID,104,VALID,0,VALID,23.8889,VALID,183,VALID,0.00429688,
2012-07-12, 00:32:05,VALID,1009.83,VALID,0,VALID,104,VALID,0,VALID,23.8889,VALID,183,VALID,0,
2012-07-12, 00:33:05,VALID,1009.81,VALID,0,VALID,104,VALID,0,VALID,23.8889,VALID,183,VALID,0,
2012-07-12, 00:34:05,VALID,1009.8,VALID,0,VALID,104,VALID,0,VALID,23.8694,VALID,183,VALID,0,
2012-07-12, 00:35:05,VALID,1009.81,VALID,0,VALID,104,VALID,0,VALID,23.8499,VALID,183,VALID,0,
2012-07-12, 00:36:05,VALID,1009.8,VALID,0,VALID,104,VALID,0,VALID,23.8499,VALID,183,VALID,0,
2012-07-12, 00:37:05,VALID,1009.83,VALID,0,VALID,104,VALID,0,VALID,23.8499,VALID,183,VALID,0,
2012-07-12, 00:38:05,VALID,1009.84,VALID,0,VALID,104,VALID,0,VALID,23.8091,VALID,183,VALID,0,
2012-07-12, 00:39:05,VALID,1009.86,VALID,0,VALID,104,VALID,0.112112,VALID,23.8499,VALID,183,VALID,0,
2012-07-12, 00:40:05,VALID,1009.84,VALID,0,VALID,104,VALID,0,VALID,23.8304,VALID,183,VALID,0,
2012-07-12, 00:41:05,VALID,1009.83,VALID,0,VALID,104,VALID,0,VALID,23.8499,VALID,183,VALID,0,
2012-07-12, 00:42:05,VALID,1009.83,VALID,0,VALID,104,VALID,0,VALID,23.8304,VALID,183,VALID,0,
2012-07-12, 00:43:05,VALID,1009.8,VALID,0,VALID,104,VALID,0,VALID,23.8304,VALID,183,VALID,0,
2012-07-12, 00:44:05,VALID,1009.77,VALID,0,VALID,104,VALID,0.112112,VALID,23.8091,VALID,183,VALID,0,
2012-07-12, 00:45:05,VALID,1009.77,VALID,0,VALID,104,VALID,0,VALID,23.8304,VALID,183,VALID,0,
2012-07-12, 00:46:05,VALID,1009.75,VALID,0,VALID,104,VALID,0,VALID,23.8109,VALID,183,VALID,0,
2012-07-12, 00:47:05,VALID,1009.74,VALID,0,VALID,104,VALID,0,VALID,23.8304,VALID,183,VALID,0,
2012-07-12, 00:48:05,VALID,1009.76,VALID,0,VALID,104,VALID,0,VALID,23.8109,VALID,183,VALID,0,
2012-07-12, 00:49:05,VALID,1009.73,VALID,0,VALID,104,VALID,0,VALID,23.772,VALID,183,VALID,0,
2012-07-12, 00:50:05,VALID,1009.7,VALID,0,VALID,104,VALID,0,VALID,23.772,VALID,183,VALID,0,
2012-07-12, 00:51:05,VALID,1009.71,VALID,0,VALID,104,VALID,0,VALID,23.7932,VALID,183,VALID,0,
2012-07-12, 00:52:05,VALID,1009.69,VALID,0,VALID,104,VALID,0,VALID,23.772,VALID,183,VALID,0,
2012-07-12, 00:53:05,VALID,1009.71,VALID,0,VALID,104,VALID,0,VALID,23.7525,VALID,183,VALID,0,
2012-07-12, 00:54:05,VALID,1009.71,VALID,0,VALID,104,VALID,0,VALID,23.7525,VALID,183,VALID,0,
2012-07-12, 00:55:05,VALID,1009.72,VALID,0,VALID,104,VALID,0,VALID,23.7525,VALID,183,VALID,0,
2012-07-12, 00:56:04,VALID,1009.67,VALID,0,VALID,104,VALID,0,VALID,23.7525,VALID,183,VALID,0,
2012-07-12, 00:57:04,VALID,1009.66,VALID,0,VALID,104,VALID,0,VALID,23.772,VALID,183,VALID,0,
2012-07-12, 00:58:04,VALID,1009.61,VALID,0,VALID,104,VALID,0,VALID,23.772,VALID,183,VALID,0,
2012-07-12, 00:59:04,VALID,1009.61,VALID,0,VALID,104,VALID,0,VALID,23.772,VALID,183,VALID,0,
2012-07-12, 01:00:04,VALID,1009.6,VALID,0,VALID,104,VALID,0,VALID,23.772,VALID,183,VALID,0,
2012-07-12, 01:01:04,VALID,1009.57,VALID,0,VALID,104,VALID,0,VALID,23.772,VALID,183,VALID,0,
2012-07-12, 01:02:04,VALID,1009.58,VALID,0,VALID,104,VALID,0,VALID,23.7914,VALID,183,VALID,0,
2012-07-12, 01:03:04,VALID,1009.58,VALID,0,VALID,104,VALID,0,VALID,23.8304,VALID,183,VALID,0,
2012-07-12, 01:04:04,VALID,1009.57,VALID,0,VALID,104,VALID,0,VALID,23.8499,VALID,183,VALID,0,
2012-07-12, 01:05:04,VALID,1009.55,VALID,0,VALID,104,VALID,0,VALID,23.8304,VALID,183,VALID,0,
2012-07-12, 01:06:04,VALID,1009.57,VALID,0,VALID,104,VALID,0,VALID,23.8499,VALID,183,VALID,0,
2012-07-12, 01:07:04,VALID,1009.57,VALID,0,VALID,104,VALID,0,VALID,23.8304,VALID,183,VALID,0,
2012-07-12, 01:08:04,VALID,1009.54,VALID,0,VALID,104,VALID,0,VALID,23.8304,VALID,183,VALID,0,
2012-07-12, 01:09:04,VALID,1009.53,VALID,0,VALID,104,VALID,0,VALID,23.8304,VALID,183,VALID,0,
2012-07-12, 01:10:04,VALID,1009.55,VALID,0,VALID,104,VALID,0,VALID,23.8694,VALID,183,VALID,0,
2012-07-12, 01:11:04,VALID,1009.54,VALID,0,VALID,104,VALID,0,VALID,23.9278,VALID,183,VALID,0.321484,
2012-07-12, 01:12:04,VALID,1009.54,VALID,0,VALID,104,VALID,0,VALID,23.9668,VALID,183,VALID,0.0960938,
2012-07-12, 01:13:04,VALID,1009.54,VALID,0,VALID,104,VALID,0,VALID,24.0253,VALID,183,VALID,0.0113281,
2012-07-12, 01:14:04,VALID,1009.51,VALID,0,VALID,104,VALID,0,VALID,24.0448,VALID,183,VALID,0.157813,
2012-07-12, 01:15:04,VALID,1009.55,VALID,0,VALID,104,VALID,0,VALID,24.0643,VALID,183,VALID,0.226563,
2012-07-12, 01:16:04,VALID,1009.53,VALID,0,VALID,104,VALID,0,VALID,24.0643,VALID,183,VALID,0.100391,
2012-07-12, 01:17:04,VALID,1009.53,VALID,0,VALID,104,VALID,0,VALID,24.0643,VALID,183,VALID,0.114453,
2012-07-12, 01:18:04,VALID,1009.5,VALID,0,VALID,104,VALID,0.112112,VALID,24.0837,VALID,183,VALID,0.223047,
2012-07-12, 01:19:04,VALID,1009.5,VALID,0,VALID,104,VALID,0,VALID,24.0837,VALID,183,VALID,0.323047,
2012-07-12, 01:20:04,VALID,1009.49,VALID,0,VALID,104,VALID,0,VALID,24.1227,VALID,183,VALID,0.396094,
2012-07-12, 01:21:04,VALID,1009.47,VALID,0,VALID,104,VALID,0,VALID,24.1422,VALID,164,VALID,0.441016,
2012-07-12, 01:22:04,VALID,1009.5,VALID,0,VALID,104,VALID,0,VALID,24.1404,VALID,99,VALID,0.565625,
2012-07-12, 01:23:04,VALID,1009.5,VALID,0,VALID,104,VALID,0,VALID,24.1812,VALID,99,VALID,0.452344,
2012-07-12, 01:24:04,VALID,1009.49,VALID,0,VALID,104,VALID,0,VALID,24.2202,VALID,106,VALID,0.700391,
2012-07-12, 01:25:04,VALID,1009.48,VALID,0,VALID,104,VALID,0,VALID,24.2396,VALID,106,VALID,0.325391,
2012-07-12, 01:26:04,VALID,1009.44,VALID,0,VALID,104,VALID,0,VALID,24.2786,VALID,109,VALID,0.634375,
2012-07-12, 01:27:04,VALID,1009.45,VALID,0,VALID,104,VALID,0,VALID,24.2768,VALID,111,VALID,0.522656,
2012-07-12, 01:28:04,VALID,1009.44,VALID,0,VALID,104,VALID,0,VALID,24.3176,VALID,110,VALID,0.634375,
2012-07-12, 01:29:04,VALID,1009.42,VALID,0,VALID,104,VALID,0,VALID,24.3371,VALID,110,VALID,0.594922,
2012-07-12, 01:30:04,VALID,1009.4,VALID,0,VALID,104,VALID,0,VALID,24.3371,VALID,109,VALID,0.558984,
2012-07-12, 01:31:04,VALID,1009.43,VALID,0,VALID,104,VALID,0,VALID,24.3566,VALID,109,VALID,0.626172,
2012-07-12, 01:32:04,VALID,1009.43,VALID,0,VALID,104,VALID,0,VALID,24.3956,VALID,117,VALID,1.05117,
2012-07-12, 01:33:04,VALID,1009.42,VALID,0,VALID,104,VALID,0,VALID,24.3956,VALID,95,VALID,0.723047,
2012-07-12, 01:34:04,VALID,1009.42,VALID,0,VALID,104,VALID,0,VALID,24.3937,VALID,117,VALID,0.842188,
2012-07-12, 01:35:04,VALID,1009.41,VALID,0,VALID,104,VALID,0,VALID,24.3937,VALID,117,VALID,0.494531,
2012-07-12, 01:36:04,VALID,1009.4,VALID,0,VALID,104,VALID,0,VALID,24.3956,VALID,117,VALID,0.325,
2012-07-12, 01:37:04,VALID,1009.41,VALID,0,VALID,104,VALID,0,VALID,24.3956,VALID,87,VALID,0.6875,
2012-07-12, 01:38:04,VALID,1009.43,VALID,0,VALID,104,VALID,0,VALID,24.4169,VALID,51,VALID,0.65625,
2012-07-12, 01:39:04,VALID,1009.43,VALID,0,VALID,104,VALID,0,VALID,24.3956,VALID,51,VALID,0.567578,
2012-07-12, 01:40:04,VALID,1009.44,VALID,0,VALID,104,VALID,0,VALID,24.3761,VALID,51,VALID,0.662891,
2012-07-12, 01:41:04,VALID,1009.46,VALID,0,VALID,104,VALID,0,VALID,24.3566,VALID,51,VALID,0.620313,
2012-07-12, 01:42:04,VALID,1009.47,VALID,0,VALID,104,VALID,0,VALID,24.3371,VALID,51,VALID,0.64375,
2012-07-12, 01:43:04,VALID,1009.49,VALID,0,VALID,104,VALID,0,VALID,24.3371,VALID,51,VALID,0.6125,
2012-07-12, 01:44:04,VALID,1009.48,VALID,0,VALID,104,VALID,0,VALID,24.3371,VALID,51,VALID,0.161328,
2012-07-12, 01:45:04,VALID,1009.52,VALID,0,VALID,104,VALID,0,VALID,24.3176,VALID,51,VALID,0.304297,
2012-07-12, 01:46:04,VALID,1009.53,VALID,0,VALID,104,VALID,0,VALID,24.3176,VALID,103,VALID,0.585938,
2012-07-12, 01:47:04,VALID,1009.53,VALID,0,VALID,104,VALID,0,VALID,24.2981,VALID,103,VALID,0.333984,
2012-07-12, 01:48:04,VALID,1009.55,VALID,0,VALID,104,VALID,0,VALID,24.2786,VALID,103,VALID,0.335547,
2012-07-12, 01:49:04,VALID,1009.6,VALID,0,VALID,104,VALID,0,VALID,24.2591,VALID,102,VALID,0.452344,
2012-07-12, 01:50:04,VALID,1009.6,VALID,0,VALID,104,VALID,0,VALID,24.2591,VALID,99,VALID,0.43125,
2012-07-12, 01:51:04,VALID,1009.59,VALID,0,VALID,104,VALID,0,VALID,24.2591,VALID,99,VALID,0.295312,
2012-07-12, 01:52:04,VALID,1009.62,VALID,0,VALID,104,VALID,0,VALID,24.2591,VALID,81,VALID,0.266406,
2012-07-12, 01:53:04,VALID,1009.62,VALID,0,VALID,104,VALID,0.112112,VALID,24.2396,VALID,81,VALID,0.452734,
2012-07-12, 01:54:04,VALID,1009.59,VALID,0,VALID,104,VALID,0,VALID,24.2202,VALID,73,VALID,0.639063,
2012-07-12, 01:55:04,VALID,1009.6,VALID,0,VALID,104,VALID,0,VALID,24.1988,VALID,67,VALID,0.778125,
2012-07-12, 01:56:04,VALID,1009.59,VALID,0,VALID,104,VALID,0,VALID,24.1988,VALID,51,VALID,0.946094,
2012-07-12, 01:57:04,VALID,1009.61,VALID,0,VALID,104,VALID,0,VALID,24.222,VALID,51,VALID,0.849609,
2012-07-12, 01:58:04,VALID,1009.61,VALID,0,VALID,104,VALID,0,VALID,24.2007,VALID,58,VALID,0.805859,
2012-07-12, 01:59:04,VALID,1009.57,VALID,0,VALID,104,VALID,0,VALID,24.1812,VALID,54,VALID,0.612109,
2012-07-12, 02:00:04,VALID,1009.55,VALID,0,VALID,104,VALID,0,VALID,24.1812,VALID,54,VALID,0.53125,
2012-07-12, 02:01:04,VALID,1009.55,VALID,0,VALID,104,VALID,0,VALID,24.1422,VALID,46,VALID,0.846484,
2012-07-12, 02:02:04,VALID,1009.52,VALID,0,VALID,104,VALID,0,VALID,24.1227,VALID,46,VALID,0.329297,
2012-07-12, 02:03:04,VALID,1009.53,VALID,0,VALID,104,VALID,0,VALID,24.1245,VALID,46,VALID,0.760156,
2012-07-12, 02:04:04,VALID,1009.53,VALID,0,VALID,104,VALID,0,VALID,24.1245,VALID,46,VALID,0.430859,
2012-07-12, 02:05:04,VALID,1009.53,VALID,0,VALID,104,VALID,0,VALID,24.0837,VALID,46,VALID,0.212891,
2012-07-12, 02:06:04,VALID,1009.51,VALID,0,VALID,104,VALID,0,VALID,24.0837,VALID,46,VALID,0.179688,
2012-07-12, 02:07:04,VALID,1009.48,VALID,0,VALID,104,VALID,0,VALID,24.0661,VALID,46,VALID,0.305078,
2012-07-12, 02:08:04,VALID,1009.48,VALID,0,VALID,104,VALID,0,VALID,24.0466,VALID,46,VALID,0.692578,
2012-07-12, 02:09:04,VALID,1009.47,VALID,0,VALID,104,VALID,0,VALID,24.0466,VALID,46,VALID,0.0683594,
2012-07-12, 02:10:04,VALID,1009.48,VALID,0,VALID,104,VALID,0,VALID,24.0058,VALID,46,VALID,0.169922,
2012-07-12, 02:11:04,VALID,1009.47,VALID,0,VALID,104,VALID,0,VALID,24.0466,VALID,46,VALID,0.486719,
2012-07-12, 02:12:04,VALID,1009.47,VALID,0,VALID,104,VALID,0,VALID,24.0271,VALID,46,VALID,0.00195313,
2012-07-12, 02:13:04,VALID,1009.46,VALID,0,VALID,104,VALID,0,VALID,24.0271,VALID,46,VALID,0,
2012-07-12, 02:14:04,VALID,1009.42,VALID,0,VALID,104,VALID,0,VALID,23.9863,VALID,46,VALID,0,
2012-07-12, 02:15:04,VALID,1009.44,VALID,0,VALID,104,VALID,0,VALID,24.0076,VALID,46,VALID,0,
2012-07-12, 02:16:04,VALID,1009.39,VALID,0,VALID,104,VALID,0,VALID,23.9863,VALID,46,VALID,0,
2012-07-12, 02:17:04,VALID,1009.4,VALID,0,VALID,104,VALID,0,VALID,23.9668,VALID,46,VALID,0,
2012-07-12, 02:18:04,VALID,1009.4,VALID,0,VALID,104,VALID,0,VALID,23.9668,VALID,46,VALID,0.278906,
2012-07-12, 02:19:04,VALID,1009.39,VALID,0,VALID,104,VALID,0,VALID,23.9668,VALID,46,VALID,0.507813,
2012-07-12, 02:20:04,VALID,1009.4,VALID,0,VALID,104,VALID,0,VALID,23.9881,VALID,46,VALID,0.355469,
2012-07-12, 02:21:04,VALID,1009.37,VALID,0,VALID,104,VALID,0,VALID,23.9473,VALID,46,VALID,0.491406,
2012-07-12, 02:22:04,VALID,1009.36,VALID,0,VALID,104,VALID,0,VALID,23.9473,VALID,46,VALID,0.288281,
2012-07-12, 02:23:04,VALID,1009.36,VALID,0,VALID,104,VALID,0,VALID,23.9473,VALID,46,VALID,0.455859,
2012-07-12, 02:24:04,VALID,1009.34,VALID,0,VALID,104,VALID,0,VALID,23.9278,VALID,46,VALID,0.289844,
2012-07-12, 02:25:04,VALID,1009.34,VALID,0,VALID,104,VALID,0,VALID,23.9084,VALID,46,VALID,0.421875,
2012-07-12, 02:26:04,VALID,1009.33,VALID,0,VALID,104,VALID,0,VALID,23.9297,VALID,46,VALID,0.399609,
2012-07-12, 02:27:04,VALID,1009.32,VALID,0,VALID,104,VALID,0,VALID,23.9084,VALID,96,VALID,1.16055,
2012-07-12, 02:28:04,VALID,1009.31,VALID,0,VALID,104,VALID,0,VALID,23.9278,VALID,83,VALID,1.00039,
2012-07-12, 02:29:04,VALID,1009.28,VALID,0,VALID,104,VALID,0,VALID,23.9473,VALID,82,VALID,0.825781,
2012-07-12, 02:30:04,VALID,1009.28,VALID,0,VALID,104,VALID,0,VALID,23.9473,VALID,82,VALID,0.658203,
2012-07-12, 02:31:04,VALID,1009.24,VALID,0,VALID,104,VALID,0,VALID,23.9686,VALID,78,VALID,0.750391,
2012-07-12, 02:32:04,VALID,1009.23,VALID,0,VALID,104,VALID,0,VALID,23.9278,VALID,81,VALID,0.714063,
2012-07-12, 02:33:04,VALID,1009.24,VALID,0,VALID,104,VALID,0,VALID,23.9473,VALID,91,VALID,0.64375,
2012-07-12, 02:34:04,VALID,1009.22,VALID,0,VALID,104,VALID,0,VALID,23.9278,VALID,92,VALID,0.867578,
2012-07-12, 02:35:04,VALID,1009.2,VALID,0,VALID,104,VALID,0,VALID,23.9491,VALID,90,VALID,0.337109,
2012-07-12, 02:36:04,VALID,1009.19,VALID,0,VALID,104,VALID,0,VALID,23.9491,VALID,90,VALID,0.601172,
2012-07-12, 02:37:04,VALID,1009.17,VALID,0,VALID,104,VALID,0,VALID,23.9084,VALID,90,VALID,0.274219,
2012-07-12, 02:38:04,VALID,1009.18,VALID,0,VALID,104,VALID,0,VALID,23.9297,VALID,90,VALID,0,
2012-07-12, 02:39:04,VALID,1009.2,VALID,0,VALID,104,VALID,0,VALID,23.9084,VALID,90,VALID,0.0535156,
2012-07-12, 02:40:04,VALID,1009.2,VALID,0,VALID,104,VALID,0,VALID,23.8889,VALID,72,VALID,0.701172,
2012-07-12, 02:41:04,VALID,1009.17,VALID,0,VALID,104,VALID,0,VALID,23.8889,VALID,71,VALID,0.541406,
2012-07-12, 02:42:04,VALID,1009.17,VALID,0,VALID,104,VALID,0,VALID,23.8889,VALID,71,VALID,0.346094,
2012-07-12, 02:43:04,VALID,1009.16,VALID,0,VALID,104,VALID,0,VALID,23.8907,VALID,71,VALID,0.371094,
2012-07-12, 02:44:04,VALID,1009.17,VALID,0,VALID,104,VALID,0,VALID,23.9102,VALID,70,VALID,0.894531,
2012-07-12, 02:45:04,VALID,1009.15,VALID,0,VALID,104,VALID,0,VALID,23.8907,VALID,70,VALID,0.660156,
2012-07-12, 02:46:04,VALID,1009.11,VALID,0,VALID,104,VALID,0,VALID,23.8889,VALID,56,VALID,0.569922,
2012-07-12, 02:47:04,VALID,1009.1,VALID,0,VALID,104,VALID,0,VALID,23.8889,VALID,56,VALID,0.357031,
2012-07-12, 02:48:04,VALID,1009.12,VALID,0,VALID,104,VALID,0,VALID,23.8907,VALID,56,VALID,0.468359,
2012-07-12, 02:49:04,VALID,1009.08,VALID,0,VALID,104,VALID,0,VALID,23.8694,VALID,56,VALID,0.378516,
2012-07-12, 02:50:04,VALID,1009.12,VALID,0,VALID,104,VALID,0,VALID,23.8499,VALID,56,VALID,0.432031,
2012-07-12, 02:51:04,VALID,1009.12,VALID,0,VALID,104,VALID,0,VALID,23.8694,VALID,56,VALID,0.422656,
2012-07-12, 02:52:04,VALID,1009.12,VALID,0,VALID,104,VALID,0,VALID,23.8499,VALID,56,VALID,0.216797,
2012-07-12, 02:53:04,VALID,1009.08,VALID,0,VALID,104,VALID,0,VALID,23.8499,VALID,56,VALID,0.331641,
2012-07-12, 02:54:04,VALID,1009.08,VALID,0,VALID,104,VALID,0,VALID,23.8304,VALID,56,VALID,0.145703,
2012-07-12, 02:55:04,VALID,1009.05,VALID,0,VALID,104,VALID,0,VALID,23.7914,VALID,56,VALID,0.320313,
2012-07-12, 02:56:04,VALID,1009.08,VALID,0,VALID,104,VALID,0,VALID,23.8109,VALID,56,VALID,0.124609,
2012-07-12, 02:57:04,VALID,1009.07,VALID,0,VALID,104,VALID,0,VALID,23.7701,VALID,56,VALID,0.100781,
2012-07-12, 02:58:04,VALID,1009.07,VALID,0,VALID,104,VALID,0,VALID,23.772,VALID,56,VALID,0.0015625,
2012-07-12, 02:59:04,VALID,1009.07,VALID,0,VALID,104,VALID,0,VALID,23.7525,VALID,56,VALID,0,
2012-07-12, 03:00:04,VALID,1009.05,VALID,0,VALID,104,VALID,0,VALID,23.733,VALID,56,VALID,0,
2012-07-12, 03:01:04,VALID,1009.06,VALID,0,VALID,104,VALID,0,VALID,23.733,VALID,56,VALID,0,
2012-07-12, 03:02:04,VALID,1009.08,VALID,0,VALID,104,VALID,0,VALID,23.7135,VALID,56,VALID,0.241016,
2012-07-12, 03:03:04,VALID,1009.07,VALID,0,VALID,104,VALID,0,VALID,23.7525,VALID,56,VALID,0.149609,
2012-07-12, 03:04:04,VALID,1009.1,VALID,0,VALID,104,VALID,0,VALID,23.772,VALID,56,VALID,0.227344,
2012-07-12, 03:05:04,VALID,1009.05,VALID,0,VALID,104,VALID,0,VALID,23.7932,VALID,56,VALID,0,
2012-07-12, 03:06:04,VALID,1009.04,VALID,0,VALID,104,VALID,0,VALID,23.7914,VALID,56,VALID,0,
2012-07-12, 03:07:04,VALID,1009.05,VALID,0,VALID,104,VALID,0,VALID,23.7914,VALID,56,VALID,0,
2012-07-12, 03:08:04,VALID,1009.03,VALID,0,VALID,104,VALID,0,VALID,23.772,VALID,56,VALID,0,
2012-07-12, 03:09:04,VALID,1009.02,VALID,0,VALID,104,VALID,0,VALID,23.772,VALID,56,VALID,0,
2012-07-12, 03:10:04,VALID,1009.03,VALID,0,VALID,104,VALID,0,VALID,23.733,VALID,56,VALID,0,
2012-07-12, 03:11:04,VALID,1009.02,VALID,0,VALID,104,VALID,0,VALID,23.7135,VALID,56,VALID,0,
2012-07-12, 03:12:04,VALID,1009.01,VALID,0,VALID,104,VALID,0,VALID,23.7135,VALID,56,VALID,0,
2012-07-12, 03:13:04,VALID,1009.01,VALID,0,VALID,104,VALID,0,VALID,23.6745,VALID,56,VALID,0,
2012-07-12, 03:14:04,VALID,1009,VALID,0,VALID,104,VALID,0,VALID,23.6356,VALID,56,VALID,0,
2012-07-12, 03:15:04,VALID,1009.02,VALID,0,VALID,104,VALID,0,VALID,23.5966,VALID,56,VALID,0,
2012-07-12, 03:16:04,VALID,1009,VALID,0,VALID,104,VALID,0,VALID,23.5966,VALID,56,VALID,0,
2012-07-12, 03:17:04,VALID,1009.04,VALID,0,VALID,104,VALID,0,VALID,23.5966,VALID,56,VALID,0,
2012-07-12, 03:18:04,VALID,1009.05,VALID,0,VALID,104,VALID,0,VALID,23.5576,VALID,56,VALID,0,
2012-07-12, 03:19:04,VALID,1009.06,VALID,0,VALID,104,VALID,0,VALID,23.5594,VALID,56,VALID,0,
2012-07-12, 03:20:04,VALID,1009.08,VALID,0,VALID,104,VALID,0,VALID,23.5381,VALID,56,VALID,0,
2012-07-12, 03:21:04,VALID,1009.07,VALID,0,VALID,104,VALID,0,VALID,23.5186,VALID,56,VALID,0,
2012-07-12, 03:22:04,VALID,1009.07,VALID,0,VALID,104,VALID,0,VALID,23.4797,VALID,56,VALID,0,
2012-07-12, 03:23:04,VALID,1009.08,VALID,0,VALID,104,VALID,0,VALID,23.4797,VALID,56,VALID,0.16875,
2012-07-12, 03:24:04,VALID,1009.09,VALID,0,VALID,104,VALID,0,VALID,23.4992,VALID,56,VALID,0.214453,
2012-07-12, 03:25:04,VALID,1009.09,VALID,0,VALID,104,VALID,0,VALID,23.5204,VALID,56,VALID,0.223047,
2012-07-12, 03:26:04,VALID,1009.09,VALID,0,VALID,104,VALID,0,VALID,23.4992,VALID,56,VALID,0.198437,
2012-07-12, 03:27:04,VALID,1009.07,VALID,0,VALID,104,VALID,0,VALID,23.5381,VALID,56,VALID,0.142969,
2012-07-12, 03:28:04,VALID,1009.07,VALID,0,VALID,104,VALID,0,VALID,23.5381,VALID,56,VALID,0,
2012-07-12, 03:29:04,VALID,1009.07,VALID,0,VALID,104,VALID,0,VALID,23.5576,VALID,56,VALID,0,
2012-07-12, 03:30:04,VALID,1009.08,VALID,0,VALID,104,VALID,0,VALID,23.5576,VALID,56,VALID,0,
2012-07-12, 03:31:04,VALID,1009.07,VALID,0,VALID,104,VALID,0,VALID,23.5594,VALID,56,VALID,0,
2012-07-12, 03:32:04,VALID,1009.06,VALID,0,VALID,104,VALID,0,VALID,23.5186,VALID,56,VALID,0,
2012-07-12, 03:33:04,VALID,1009.06,VALID,0,VALID,104,VALID,0,VALID,23.5204,VALID,56,VALID,0,
2012-07-12, 03:34:04,VALID,1009.01,VALID,0,VALID,104,VALID,0,VALID,23.4797,VALID,56,VALID,0,
2012-07-12, 03:35:04,VALID,1009,VALID,0,VALID,104,VALID,0,VALID,23.4017,VALID,56,VALID,0,
2012-07-12, 03:36:04,VALID,1009.01,VALID,0,VALID,104,VALID,0,VALID,23.3628,VALID,55,VALID,0,
2012-07-12, 03:37:04,VALID,1008.97,VALID,0,VALID,104,VALID,0,VALID,23.3628,VALID,56,VALID,0,
2012-07-12, 03:38:04,VALID,1008.98,VALID,0,VALID,104,VALID,0,VALID,23.3238,VALID,55,VALID,0,
2012-07-12, 03:39:04,VALID,1008.97,VALID,0,VALID,104,VALID,0,VALID,23.3451,VALID,56,VALID,0.1,
2012-07-12, 03:40:04,VALID,1008.98,VALID,0,VALID,104,VALID,0,VALID,23.3433,VALID,56,VALID,0,
2012-07-12, 03:41:04,VALID,1008.98,VALID,0,VALID,104,VALID,0,VALID,23.3433,VALID,56,VALID,0,
2012-07-12, 03:42:04,VALID,1008.98,VALID,0,VALID,104,VALID,0,VALID,23.3043,VALID,56,VALID,0.0339844,
2012-07-12, 03:43:04,VALID,1008.93,VALID,0,VALID,104,VALID,0,VALID,23.3061,VALID,56,VALID,0,
2012-07-12, 03:44:04,VALID,1008.92,VALID,0,VALID,104,VALID,0.112112,VALID,23.2246,VALID,56,VALID,0,
2012-07-12, 03:45:04,VALID,1008.95,VALID,0,VALID,104,VALID,0,VALID,23.2051,VALID,55,VALID,0,
2012-07-12, 03:46:04,VALID,1008.94,VALID,0,VALID,104,VALID,0,VALID,23.1662,VALID,56,VALID,0,
2012-07-12, 03:47:04,VALID,1008.91,VALID,0,VALID,104,VALID,0,VALID,23.1485,VALID,55,VALID,0,
2012-07-12, 03:48:04,VALID,1008.92,VALID,0,VALID,104,VALID,0.112112,VALID,23.1467,VALID,55,VALID,0,
2012-07-12, 03:49:04,VALID,1008.93,VALID,0,VALID,104,VALID,0.112112,VALID,23.1485,VALID,55,VALID,0,
2012-07-12, 03:50:04,VALID,1008.9,VALID,0,VALID,104,VALID,0,VALID,23.129,VALID,55,VALID,0,
2012-07-12, 03:51:04,VALID,1008.92,VALID,0,VALID,104,VALID,0.112112,VALID,23.1679,VALID,55,VALID,0,
2012-07-12, 03:52:04,VALID,1008.91,VALID,0,VALID,104,VALID,0,VALID,23.2069,VALID,56,VALID,0,
2012-07-12, 03:53:04,VALID,1008.89,VALID,0,VALID,104,VALID,0,VALID,23.2459,VALID,55,VALID,0,
2012-07-12, 03:54:04,VALID,1008.91,VALID,0,VALID,104,VALID,0,VALID,23.2441,VALID,55,VALID,0.196484,
2012-07-12, 03:55:04,VALID,1008.9,VALID,0,VALID,104,VALID,0,VALID,23.3043,VALID,55,VALID,0.202734,
2012-07-12, 03:56:04,VALID,1008.9,VALID,0,VALID,104,VALID,0,VALID,23.3238,VALID,55,VALID,0,
2012-07-12, 03:57:04,VALID,1008.91,VALID,0,VALID,104,VALID,0.112112,VALID,23.3238,VALID,55,VALID,0,
2012-07-12, 03:58:04,VALID,1008.9,VALID,0,VALID,104,VALID,0,VALID,23.3238,VALID,55,VALID,0,
2012-07-12, 03:59:04,VALID,1008.91,VALID,0,VALID,104,VALID,0.112112,VALID,23.2459,VALID,55,VALID,0,
2012-07-12, 04:00:04,VALID,1008.91,VALID,0,VALID,104,VALID,0.112112,VALID,23.1874,VALID,55,VALID,0.00234375,
2012-07-12, 04:01:04,VALID,1008.94,VALID,0,VALID,104,VALID,0,VALID,23.1485,VALID,55,VALID,0.158203,